Madrid, El Salvador

1:49 AM CEST en Abril 23, 2018 (GMT +0200)
Madrid-Barajas Airport

Tiempo Historia de LEMD - Enero, 2018

Change the Weather History Date:

Domingo, Enero 14, 2018

  Actual Average Record
Temperature  
Temperatura media 40 ° F -  
Temperatura máxima 45 ° F 51 ° F 60 ° F (2007)
Temperatura mínima 35 ° F 32 ° F 21 ° F (2003)
Degree Days  
Grados día de calefacción 24    
Moisture  
Punto de rocío 37 ° F    
Average Humidity 88    
Maximum Humidity 100    
Minimum Humidity 59    
Precipitación  
Precipitación 0.00 pul 0.06 pul - ()
Presión al nivel del mar  
Presión al nivel del mar 30.09 pul    
Viento  
Velocidad del viento 4 mph ()    
Velocidad máxima del viento 7 mph    
Max Gust Speed -    
Visibilidad 8.7 Millas    
Eventos      
Averages and records for this station are not official NWS values.
T = Trace of Precipitation, MM = Missing Value Source: Averaged Metar Reports

Daily Weather History Graph

Daily Weather History Graph

Search for Another Location

Airport or City:

Astronomía

Jan. 14, 2018 Salida Puesta
Hora real 8:35 AM CET 6:10 PM CET
Crepúsculo civil 8:05 AM CET 6:41 PM CET
Crepúsculo náutico 7:32 AM CET 7:14 PM CET
Crepúsculo astronómico 6:59 AM CET 7:47 PM CET
Luna 6:18 AM CET (1/14) 4:17 PM CET (1/14)
Horas de luz 10h 35m
Horas de luz
9h 35m
Creciente menguante, 6% of the Moon is Illuminated
Ene 14
Creciente menguante
Ene 17
Nueva
Ene 24
Cuarto creciente
Ene 31
Luna llena
Feb 7
Cuarto menguante

Hourly Weather History & Observations

Hora (CET) Temp. Vientos helados Punto de rocío Humedad Presión Visibilidad Wind Dir Velocidad del viento Velocidad de ráfagas Precip Eventos Condiciones
12:00 AM 38 ° F - 36 ° F 90% 30.14 pul 8 mi Sur 3.5 mph - -   Nublado
12:00 AM 39.2 ° F 37.0 ° F 37.4 ° F 93% 30.06 pul 5.0 mi Sur 3.5 mph - N/A   Muy nublado
12:30 AM 37.4 ° F 32.8 ° F 37.4 ° F 100% 30.06 pul 6.2 mi Sur 5.8 mph - N/A   Muy nublado
1:00 AM 37.4 ° F 32.1 ° F 37.4 ° F 100% 30.06 pul 6.2 mi Sur 6.9 mph - N/A   Muy nublado
1:30 AM 37.4 ° F 33.8 ° F 37.4 ° F 100% 30.06 pul 6.2 mi Sur 4.6 mph - N/A   Muy nublado
2:00 AM 38 ° F - 36 ° F 92% 30.13 pul 9 mi Oeste 3.5 mph - -   Nublado
2:00 AM 37.4 ° F - 37.4 ° F 100% 30.06 pul 6.2 mi Variable 2.3 mph - N/A   Muy nublado
2:30 AM 37.4 ° F 32.8 ° F 37.4 ° F 100% 30.06 pul 6.2 mi SO 5.8 mph - N/A   Muy nublado
3:00 AM 38 ° F - 36 ° F 87% 30.12 pul 19 mi SO 4.6 mph - -   Nublado
3:00 AM 39.2 ° F 35.9 ° F 37.4 ° F 93% 30.04 pul 6.2 mi SO 4.6 mph - N/A   Muy nublado
3:30 AM 37.4 ° F - 35.6 ° F 93% 30.06 pul 6.2 mi Variable 2.3 mph - N/A   Muy nublado
4:00 AM 38 ° F - 36 ° F 88% 30.12 pul 19 mi Oeste 3.5 mph - -   Nublado
4:00 AM 37.4 ° F - 35.6 ° F 93% 30.06 pul 6.2 mi Variable 2.3 mph - N/A   Muy nublado
4:30 AM 37.4 ° F 34.9 ° F 37.4 ° F 100% 30.04 pul 6.2 mi Norte 3.5 mph - N/A   Muy nublado
5:00 AM 38 ° F - 36 ° F 91% 30.12 pul 10 mi Norte 2.3 mph - -   Nublado
5:00 AM 37.4 ° F - 37.4 ° F 100% 30.04 pul 6.2 mi Norte 2.3 mph - N/A   Muy nublado
5:30 AM 37.4 ° F 34.9 ° F 37.4 ° F 100% 30.04 pul 6.2 mi ENE 3.5 mph - N/A   Muy nublado
6:00 AM 37 ° F - 36 ° F 92% 30.11 pul 7 mi ESE 2.3 mph - -   Nublado
6:00 AM 35.6 ° F - 35.6 ° F 100% 30.04 pul 6.2 mi ESE 2.3 mph - N/A   Muy nublado
6:30 AM 37.4 ° F - 37.4 ° F 100% 30.04 pul 6.2 mi Variable 2.3 mph - N/A   Muy nublado
7:00 AM 37 ° F - 36 ° F 93% 30.11 pul 6 mi Norte 3.5 mph - -   Nublado
7:00 AM 37.4 ° F - 37.4 ° F 100% 30.04 pul 6.2 mi NNE 2.3 mph - N/A   Muy nublado
7:30 AM 37.4 ° F 34.9 ° F 37.4 ° F 100% 30.04 pul 6.2 mi Norte 3.5 mph - N/A   Muy nublado
8:00 AM 37.4 ° F - 37.4 ° F 100% 30.04 pul 6.2 mi NO 2.3 mph - N/A   Nublado
8:30 AM 37.4 ° F - 37.4 ° F 100% 30.04 pul 5.0 mi NE 1.2 mph - N/A   Nubes dispersas
9:00 AM 37 ° F - 36 ° F 95% 30.13 pul 6 mi NO 1.2 mph - -   Neblina
9:00 AM 37.4 ° F - 37.4 ° F 100% 30.06 pul 5.6 mi NO 1.2 mph - N/A   Nubes dispersas
9:30 AM 37.4 ° F - 37.4 ° F 100% 30.06 pul 5.6 mi Variable 2.3 mph - N/A   Nubes dispersas
10:00 AM 39 ° F - 37 ° F 90% 30.14 pul 7 mi Norte 3.5 mph - -   Muy nublado
10:00 AM 39.2 ° F - 37.4 ° F 93% 30.06 pul 5.6 mi Variable 1.2 mph - N/A   Muy nublado
10:15 AM 37.4 ° F 33.8 ° F 37.4 ° F 100% 30.06 pul 5.6 mi Norte 4.6 mph - N/A   Muy nublado
10:30 AM 37.4 ° F 32.8 ° F 37.4 ° F 100% 30.06 pul 5.6 mi Norte 5.8 mph - N/A   Muy nublado
11:00 AM 39 ° F - 38 ° F 92% 30.14 pul 7 mi Norte 5.8 mph - -   Muy nublado
11:00 AM 37.4 ° F 32.8 ° F 37.4 ° F 100% 30.09 pul 6.2 mi Norte 5.8 mph - N/A   Muy nublado
11:30 AM 39.2 ° F 37.0 ° F 37.4 ° F 93% 30.09 pul 6.2 mi NNO 3.5 mph - N/A   Muy nublado
12:00 PM 41 ° F - 37 ° F 80% 30.14 pul 12 mi NO 5.8 mph - -   Muy nublado
12:00 PM 41.0 ° F 38.0 ° F 37.4 ° F 87% 30.09 pul 6.2 mi NO 4.6 mph - N/A   Muy nublado
12:30 PM 41.0 ° F 39.0 ° F 37.4 ° F 87% 30.06 pul 6.2 mi ONO 3.5 mph - N/A   Muy nublado
1:00 PM 42 ° F - 38 ° F 79% 30.12 pul 17 mi Norte 2.3 mph - -   Muy nublado
1:00 PM 42.8 ° F - 35.6 ° F 76% 30.06 pul 6.2 mi Norte 1.2 mph - N/A   Muy nublado
1:30 PM 42.8 ° F 39.3 ° F 39.2 ° F 87% 30.06 pul 6.2 mi NNO 5.8 mph - N/A   Muy nublado
2:00 PM 42 ° F - 36 ° F 74% 30.12 pul 19 mi Norte 6.9 mph - -   Nublado
2:00 PM 41.0 ° F 36.4 ° F 37.4 ° F 87% 30.06 pul 6.2 mi Norte 6.9 mph - N/A   Muy nublado
2:30 PM 42.8 ° F 38.6 ° F 37.4 ° F 81% 30.06 pul 6.2 mi NNO 6.9 mph - N/A   Muy nublado
3:00 PM 45 ° F - 37 ° F 66% 30.09 pul 19 mi NNO 2.3 mph - -   Muy nublado
3:00 PM 44.6 ° F - 35.6 ° F 71% 30.04 pul 6.2 mi Norte 2.3 mph - N/A   Muy nublado
3:30 PM 44.6 ° F 43.1 ° F 35.6 ° F 71% 30.04 pul 6.2 mi Norte 3.5 mph - N/A   Muy nublado
4:00 PM 44 ° F - 36 ° F 63% 30.09 pul 19 mi Norte 4.6 mph - -   Parcialmente nublado
4:00 PM 42.8 ° F 40.1 ° F 35.6 ° F 76% 30.04 pul 6.2 mi Norte 4.6 mph - N/A   Nubes dispersas
4:30 PM 44.6 ° F 43.1 ° F 35.6 ° F 71% 30.04 pul 6.2 mi Norte 3.5 mph - N/A   Nubes dispersas
5:00 PM 45 ° F - 35 ° F 59% 30.09 pul 19 mi Norte 5.8 mph - -   Nubes dispersas
5:00 PM 44.6 ° F 41.4 ° F 35.6 ° F 71% 30.06 pul 6.2 mi Norte 5.8 mph - N/A   Nubes dispersas
5:30 PM 44.6 ° F - 35.6 ° F 71% 30.06 pul 6.2 mi Variable 2.3 mph - N/A   Nubes dispersas
6:00 PM 42 ° F - 36 ° F 70% 30.12 pul 19 mi NE 4.6 mph - -   Nubes dispersas
6:00 PM 42.8 ° F 40.1 ° F 35.6 ° F 76% 30.06 pul 6.2 mi NE 4.6 mph - N/A   Nubes dispersas
6:30 PM 41.0 ° F - 35.6 ° F 81% 30.06 pul 6.2 mi Variable 2.3 mph - N/A   Parcialmente nublado
7:00 PM 38 ° F - 35 ° F 82% 30.16 pul 19 mi Norte 3.5 mph - -   Nubes dispersas
7:00 PM 39.2 ° F - 35.6 ° F 87% 30.09 pul 6.2 mi NNO 2.3 mph - N/A   Parcialmente nublado
7:30 PM 41.0 ° F 37.1 ° F 37.4 ° F 87% 30.09 pul 6.2 mi NNO 5.8 mph - N/A   Parcialmente nublado
8:00 PM 38 ° F - 35 ° F 87% 30.19 pul 19 mi Norte 4.6 mph - -  
8:00 PM 37.4 ° F 34.9 ° F 35.6 ° F 93% 30.12 pul 6.2 mi Norte 3.5 mph - N/A   Parcialmente nublado
8:30 PM 39.2 ° F 35.9 ° F 37.4 ° F 93% 30.12 pul - Norte 4.6 mph - N/A   Despejado
9:00 PM 39 ° F - 36 ° F 84% 30.21 pul 19 mi NNO 6.9 mph - -   Nubes dispersas
9:00 PM 39.2 ° F 34.2 ° F 37.4 ° F 93% 30.15 pul 6.2 mi NNO 6.9 mph - N/A   Parcialmente nublado
9:30 PM 39.2 ° F 37.0 ° F 37.4 ° F 93% 30.15 pul 6.2 mi Norte 3.5 mph - N/A   Parcialmente nublado
10:00 PM 39.2 ° F 35.0 ° F 35.6 ° F 87% 30.15 pul 6.2 mi NNO 5.8 mph - N/A   Parcialmente nublado
10:30 PM 39.2 ° F 35.0 ° F 35.6 ° F 87% 30.15 pul - NNO 5.8 mph - N/A   Despejado
11:00 PM 38 ° F - 34 ° F 80% 30.25 pul 19 mi NNO 6.9 mph - -   Parcialmente nublado
11:00 PM 37.4 ° F 32.8 ° F 35.6 ° F 93% 30.18 pul - NNO 5.8 mph - N/A   Despejado
11:30 PM 35.6 ° F 30.7 ° F 33.8 ° F 93% 30.18 pul - NO 5.8 mph - N/A   Despejado